Home   Weather   Bad Hersfeld   Past weeks

Flag for Germany Past Weather in Bad Hersfeld, Hesse, Germany — Yesterday and Last 2 Weeks

Now
41 °F

Partly cloudy.


Feels Like: 41 °F
Forecast: 35 / 59 °F
Wind: 1 mph from West

Location: Fritzlar Airport

Current Time: Apr 29, 2017 at 4:16:10 am

Latest Report: Apr 29, 2017 at 3:20 am


Visibility: N/A

Pressure: 30.01 "Hg

Humidity: 81%

Dew Point: 36 °F

Location of Bad HersfeldLocation

Past Weather in Bad Hersfeld — Graph

°F

Bad Hersfeld Temperature Yesterday

Maximum temperature yesterday: 52 °F (at 2:20 pm)
Minimum temperature yesterday: 28 °F (at 5:20 am)
Average temperature yesterday: 43 °F

High & Low Weather Summary for the Past Weeks

 TemperatureHumidityPressure
High59 °F (Apr 24, 3:41 pm)100% (Apr 24, 4:20 am)30.60 "Hg (Apr 24, 4:20 am)
Low25 °F (Apr 20, 6:20 am)30% (Apr 26, 3:20 pm)29.62 "Hg (Apr 25, 5:20 am)
Average43 °F66%30.10 "Hg
* Reported Apr 14 2:20 am — Apr 29 2:20 am, Bad Hersfeld, Weather by CustomWeather, © 2017

Note: Actual official high and low records may vary slightly from our data, if they occured in-between our weather recording intervals... More about our weather records

Advertising

Bad Hersfeld Weather History for the Previous 24 Hours

Scroll right to see more
 ConditionsComfort  
Time TempWeatherWind HumidityBarometerVisibility
2:20 am
Sat, Apr 29
41 °FPartly cloudy.1 mph81%30.01 "HgN/A
1:20 am43 °FPartly cloudy.3 mph81%29.98 "HgN/A
12:20 am45 °FPassing clouds.7 mph76%29.98 "HgN/A
11:20 pm
Fri, Apr 28
45 °FPassing clouds.8 mph71%29.98 "HgN/A
10:20 pm41 °FPassing clouds.6 mph76%29.95 "HgN/A
9:20 pm46 °FPassing clouds.5 mph57%29.95 "HgN/A
8:20 pm50 °FScattered clouds.5 mph47%29.92 "HgN/A
7:20 pm52 °FBroken clouds.5 mph41%29.92 "HgN/A
6:20 pm52 °FPartly sunny.2 mph41%29.92 "HgN/A
5:20 pm52 °FBroken clouds.6 mph44%29.92 "HgN/A
4:20 pm52 °FBroken clouds.3 mph38%29.92 "HgN/A
3:20 pm52 °FPartly sunny.3 mph38%29.92 "HgN/A
2:20 pm52 °FBroken clouds.9 mph41%29.89 "HgN/A
1:20 pm50 °FBroken clouds.8 mph40%29.89 "HgN/A
12:20 pm50 °FScattered clouds.6 mph50%29.92 "HgN/A
12:00 pm50 °FScattered clouds.3 mph47%29.92 "HgN/A
11:20 am48 °FPassing clouds.6 mph50%29.92 "HgN/A
10:20 am46 °FPassing clouds.2 mph57%29.92 "HgN/A
9:20 am41 °FPassing clouds.1 mph66%29.95 "HgN/A
8:20 am34 °FPassing clouds.2 mph75%29.95 "HgN/A
7:20 am30 °FScattered clouds.2 mph86%29.95 "HgN/A
6:20 am30 °FPartly sunny.5 mph80%29.95 "HgN/A
5:20 am28 °FPassing clouds.6 mph86%29.95 "HgN/A
4:20 am30 °FPassing clouds.6 mph80%29.95 "HgN/A
Weather by CustomWeather, © 2017

See weather overviewHow to use our weather pages